Koosah.INFO

KSEA Weather Observatons

This table shows observations taken by aircraft in the Seattle, WA, US area since 2019-01-20T17:21:20-0800. By default, it is sorted by time observed in ascending order. Click on a column heading to sort by that column instead. Click again on the same column heading to sort in descending order.

Show observations taken in the last:

Return to main page.

Time Observed Time Received Altitude (ft) Latitude Longitude Temperature (˚C) Wind Direction Wind speed (kn) Frequency (MHz) Source
2019-01-20T19:09:00-0800 2019-01-20T19:10:25-0800 23931 47.7726 -123.1059 -43.0 (missing) (missing) 130.025 .N611AS
2019-01-20T19:08:00-0800 2019-01-20T19:10:25-0800 23139 47.7479 -123.0693 -41.5 283 29 130.025 .N611AS
2019-01-20T19:08:00-0800 2019-01-20T19:10:25-0800 22284 47.7237 -123.0331 -39.2 289 28 130.025 .N611AS
2019-01-20T19:07:00-0800 2019-01-20T19:07:17-0800 17097 47.6396 -122.8367 -25.7 1 22 130.025 .N611AS
2019-01-20T19:06:00-0800 2019-01-20T19:07:17-0800 15989 47.637 -122.7859 -25.0 25 17 130.025 .N611AS
2019-01-20T19:06:00-0800 2019-01-20T19:07:17-0800 14974 47.6344 -122.7358 -22.7 21 13 130.025 .N611AS
2019-01-20T19:04:00-0800 2019-01-20T19:05:34-0800 10923 47.6243 -122.5396 -14.0 347 6 130.025 .N611AS
2019-01-20T19:04:00-0800 2019-01-20T19:05:34-0800 10620 47.6221 -122.4968 -13.2 346 8 130.025 .N611AS
2019-01-20T19:05:00-0800 2019-01-20T19:05:34-0800 11842 47.6267 -122.5852 -15.7 348 9 130.025 .N611AS
2019-01-20T19:04:00-0800 2019-01-20T19:05:28-0800 9812 47.6204 -122.4577 -11.0 (missing) (missing) 130.025 .N611AS
2019-01-20T19:03:00-0800 2019-01-20T19:05:28-0800 8884 47.6183 -122.4201 -10.5 7 15 130.025 .N611AS
2019-01-20T19:03:00-0800 2019-01-20T19:05:28-0800 7806 47.6132 -122.3842 -8.0 348 9 130.025 .N611AS
2019-01-20T19:03:00-0800 2019-01-20T19:04:02-0800 7655 47.6116 -122.3792 -7.5 343 9 130.025 .N611AS
2019-01-20T19:03:00-0800 2019-01-20T19:04:02-0800 6737 47.5962 -122.3525 -5.5 354 13 130.025 .N611AS
2019-01-20T19:02:00-0800 2019-01-20T19:04:02-0800 5755 47.5778 -122.3325 -5.2 349 16 130.025 .N611AS
2019-01-20T19:02:00-0800 2019-01-20T19:03:55-0800 4799 47.5587 -122.3149 -4.0 (missing) (missing) 130.025 .N611AS
2019-01-20T19:01:00-0800 2019-01-20T19:03:55-0800 3016 47.5153 -122.308 -1.0 21 5 130.025 .N611AS
2019-01-20T19:02:00-0800 2019-01-20T19:03:55-0800 3773 47.5369 -122.3092 -2.5 356 7 130.025 .N611AS
2019-01-20T19:01:00-0800 2019-01-20T19:02:54-0800 2305 47.492 -122.308 0.7 23 6 130.025 .N611AS
2019-01-20T19:01:00-0800 2019-01-20T19:02:54-0800 2181 47.4866 -122.3082 1.2 23 7 130.025 .N611AS
2019-01-20T19:01:00-0800 2019-01-20T19:02:54-0800 2068 47.4815 -122.3082 1.5 30 6 130.025 .N611AS
2019-01-20T18:29:00-0800 2019-01-20T18:29:40-0800 3011 47.5213 -122.3089 -0.7 21 6 130.025 .N552AS
2019-01-20T18:29:00-0800 2019-01-20T18:29:40-0800 2816 47.5153 -122.3087 -0.2 26 6 130.025 .N552AS
2019-01-20T18:29:00-0800 2019-01-20T18:29:40-0800 2652 47.5093 -122.3085 0.0 21 7 130.025 .N552AS
2019-01-20T18:15:00-0800 2019-01-20T18:16:14-0800 30921 47.4461 -120.344 -59.2 264 14 130.025 .N317AS
2019-01-20T18:15:00-0800 2019-01-20T18:16:14-0800 30452 47.4499 -120.4065 -58.2 262 18 130.025 .N317AS
2019-01-20T18:15:00-0800 2019-01-20T18:16:14-0800 29979 47.4538 -120.4688 -57.0 260 18 130.025 .N317AS
2019-01-20T18:11:00-0800 2019-01-20T18:12:23-0800 20926 47.7594 -123.189 -35.0 (missing) (missing) 130.025 .N607AS
2019-01-20T18:10:00-0800 2019-01-20T18:12:23-0800 20043 47.7395 -123.1416 -33.2 312 23 130.025 .N607AS
2019-01-20T18:10:00-0800 2019-01-20T18:12:23-0800 19158 47.7198 -123.0944 -31.0 331 21 130.025 .N607AS
2019-01-20T18:07:00-0800 2019-01-20T18:09:07-0800 11316 47.6348 -122.6469 -14.7 3 8 130.025 .N607AS
2019-01-20T18:07:00-0800 2019-01-20T18:09:07-0800 12140 47.6367 -122.6992 -16.0 (missing) (missing) 130.025 .N607AS
2019-01-20T18:07:00-0800 2019-01-20T18:09:07-0800 10787 47.6329 -122.5957 -14.0 11 10 130.025 .N607AS
2019-01-20T18:07:00-0800 2019-01-20T18:07:31-0800 10725 47.6325 -122.5883 -13.7 10 10 130.025 .N607AS
2019-01-20T18:06:00-0800 2019-01-20T18:07:31-0800 10410 47.6305 -122.5403 -13.0 11 9 130.025 .N607AS
2019-01-20T18:06:00-0800 2019-01-20T18:07:31-0800 10255 47.6283 -122.4958 -12.7 9 9 130.025 .N607AS
2019-01-20T18:05:00-0800 2019-01-20T18:06:13-0800 11063 47.5587 -122.0749 -14.5 348 13 130.025 .N317AS
2019-01-20T18:05:00-0800 2019-01-20T18:06:13-0800 10733 47.573 -122.114 -13.7 345 12 130.025 .N317AS
2019-01-20T18:05:00-0800 2019-01-20T18:06:13-0800 10299 47.586 -122.1501 -12.5 337 6 130.025 .N317AS
2019-01-20T18:05:00-0800 2019-01-20T18:05:46-0800 7981 47.6104 -122.3804 -8.2 344 11 130.025 .N607AS
2019-01-20T18:05:00-0800 2019-01-20T18:05:46-0800 6910 47.5953 -122.353 -6.5 348 10 130.025 .N607AS
2019-01-20T18:04:00-0800 2019-01-20T18:05:46-0800 6034 47.5781 -122.3293 -4.7 343 13 130.025 .N607AS
2019-01-20T18:02:00-0800 2019-01-20T18:03:05-0800 2556 47.5071 -122.3085 0.0 (missing) (missing) 130.025 .N317AS
2019-01-20T18:02:00-0800 2019-01-20T18:03:05-0800 2291 47.5012 -122.3085 1.2 23 4 130.025 .N317AS
2019-01-20T18:02:00-0800 2019-01-20T18:03:05-0800 2171 47.4954 -122.3083 1.5 22 4 130.025 .N317AS
2019-01-20T18:02:00-0800 2019-01-20T18:02:46-0800 2011 47.4873 -122.3082 1.7 20 6 130.025 .N317AS
2019-01-20T18:01:00-0800 2019-01-20T18:02:46-0800 1896 47.4822 -122.3082 2.2 20 6 130.025 .N317AS
2019-01-20T18:02:00-0800 2019-01-20T18:02:46-0800 2124 47.4926 -122.3083 1.5 19 5 130.025 .N317AS
2019-01-20T17:57:00-0800 2019-01-20T17:58:05-0800 19900 47.145 -123.032 -33.0 316 27 130.025 .N545US
2019-01-20T17:56:00-0800 2019-01-20T17:58:05-0800 18400 47.176 -122.573 -28.0 324 21 130.025 .N545US
2019-01-20T17:56:00-0800 2019-01-20T17:58:05-0800 16900 47.201 -122.53 -25.0 350 22 130.025 .N545US
2019-01-20T17:55:00-0800 2019-01-20T17:55:35-0800 15400 47.234 -122.474 -23.0 354 17 130.025 .N545US
2019-01-20T17:54:00-0800 2019-01-20T17:55:35-0800 13900 47.263 -122.426 -20.0 349 13 130.025 .N545US
2019-01-20T17:54:00-0800 2019-01-20T17:55:35-0800 12400 47.291 -122.378 -17.0 345 10 130.025 .N545US
2019-01-20T17:53:00-0800 2019-01-20T17:55:35-0800 10900 47.332 -122.307 -14.0 1 8 130.025 .N545US
2019-01-20T17:52:00-0800 2019-01-20T17:55:35-0800 9400 47.356 -122.269 -10.0 20 9 130.025 .N545US
2019-01-20T17:51:00-0800 2019-01-20T17:55:35-0800 7900 47.364 -122.234 -8.0 343 8 130.025 .N545US
2019-01-20T17:33:00-0800 2019-01-20T17:33:54-0800 17191 47.3469 -122.0454 -26.0 332 20 130.025 .N553AS
2019-01-20T17:33:00-0800 2019-01-20T17:33:54-0800 16527 47.3862 -122.0495 -25.2 357 24 130.025 .N553AS
2019-01-20T17:32:00-0800 2019-01-20T17:33:54-0800 16020 47.4243 -122.0531 -24.5 352 20 130.025 .N553AS
2019-01-20T17:29:00-0800 2019-01-20T17:30:29-0800 6496 47.5828 -122.3075 -5.7 331 7 130.025 .N553AS
2019-01-20T17:30:00-0800 2019-01-20T17:30:29-0800 9096 47.609 -122.2512 -10.5 343 12 130.025 .N553AS
2019-01-20T17:29:00-0800 2019-01-20T17:30:29-0800 7617 47.6029 -122.2876 -8.0 335 7 130.025 .N553AS